Weather History for Christchurch, New Zealand

Change the Weather History Date:

Saturday, September 29, 2012

  Actual Average Record
Temperature  
Mean Temperature 54 °F -  
Max Temperature 59 °F 60 °F 77 °F (2000)
Min Temperature 48 °F 39 °F 28 °F (2004)
Degree Days  
Heating Degree Days 12    
Growing Degree Days 4 (Base 50)    
Moisture  
Dew Point 49 °F    
Average Humidity 89    
Maximum Humidity 100    
Minimum Humidity 77    
Precipitation  
Precipitation 0.00 in - - ()
Sea Level Pressure  
Sea Level Pressure 29.85 in    
Wind  
Wind Speed 15 mph ()    
Max Wind Speed 24 mph    
Max Gust Speed 32 mph    
Visibility 5.6 miles    
Events      
Averages and records for this station are not official NWS values.
T = Trace of Precipitation, MM = Missing Value Source: Averaged Metar Reports

Daily Weather History Graph

Daily Weather History Graph

Search for Another Location

Airport:

Trip Planner

Search our weather history database for the weather conditions in past years. The results will help you decide how hot, cold, wet, or windy it might be!

Date:

Astronomy

Sep. 29, 2012 Rise Set
Actual Time 6:06 AM NZST 6:34 PM NZST
Civil Twilight 5:37 AM NZST 7:03 PM NZST
Nautical Twilight 5:04 AM NZST 7:37 PM NZST
Astronomical Twilight 4:29 AM NZST 8:12 PM NZST
Moon 5:44 PM NZST (9/29) 5:10 AM NZST (9/29)
Length of Visible Light 13h 25m
Length of Day
12h 27m
Waxing Gibbous, 99% of the Moon is Illuminated
Sep 29
Waxing Gibbous
Sep 30
Full
Oct 8
Last Quarter
Oct 16
New
Oct 22
First Quarter

Hourly Weather History & Observations

Time (NZST) Temp. Dew Point Humidity Pressure Visibility Wind Dir Wind Speed Gust Speed Precip Events Conditions
12:00 AM 48.2 °F 46.4 °F 93% 30.01 in 6.2 mi ENE 12.7 mph - N/A   Partly Cloudy
1:00 AM 48.2 °F 46.4 °F 93% 30.01 in 6.2 mi ENE 12.7 mph - N/A   Partly Cloudy
2:00 AM 48.2 °F 46.4 °F 93% 29.98 in 6.2 mi ENE 12.7 mph - N/A   Partly Cloudy
3:00 AM 48.2 °F 46.4 °F 93% 29.98 in 6.2 mi ENE 13.8 mph - N/A   Partly Cloudy
4:00 AM 48.2 °F 46.4 °F 93% 29.95 in 6.2 mi ENE 12.7 mph - N/A   Partly Cloudy
5:00 AM 48.2 °F 46.4 °F 93% 29.92 in 6.2 mi ENE 12.7 mph - N/A   Scattered Clouds
6:00 AM 48.2 °F 46.4 °F 93% 29.92 in 6.2 mi ENE 12.7 mph - N/A   Scattered Clouds
7:00 AM 48.2 °F 46.4 °F 93% 29.89 in 6.2 mi ENE 11.5 mph - N/A   Mostly Cloudy
8:00 AM 50.0 °F 48.2 °F 94% 29.89 in 6.2 mi ENE 17.3 mph - N/A   Mostly Cloudy
9:00 AM 51.8 °F 48.2 °F 88% 29.89 in 6.2 mi ENE 19.6 mph - N/A   Mostly Cloudy
10:00 AM 55.4 °F 50.0 °F 82% 29.89 in 6.2 mi ENE 21.9 mph - N/A   Mostly Cloudy
11:00 AM 57.2 °F 51.8 °F 82% 29.86 in 6.2 mi ENE 21.9 mph - N/A   Mostly Cloudy
12:00 PM 59.0 °F 51.8 °F 77% 29.83 in 6.2 mi ENE 24.2 mph - N/A   Scattered Clouds
1:00 PM 59.0 °F 51.8 °F 77% 29.83 in 6.2 mi ENE 24.2 mph - N/A   Scattered Clouds
1:15 PM 59.0 °F 51.8 °F 77% 29.83 in 6.2 mi ENE 24.2 mph - N/A   Mostly Cloudy
2:00 PM 59.0 °F 51.8 °F 77% 29.80 in 6.2 mi East 21.9 mph - N/A   Scattered Clouds
3:00 PM 57.2 °F 51.8 °F 82% 29.77 in 6.2 mi East 24.2 mph - N/A   Scattered Clouds
4:00 PM 57.2 °F 51.8 °F 82% 29.77 in 6.2 mi East 23.0 mph - N/A   Mostly Cloudy
5:00 PM 55.4 °F 51.8 °F 88% 29.74 in 6.2 mi East 20.7 mph 32.2 mph N/A   Mostly Cloudy
6:00 PM 53.6 °F 50.0 °F 88% 29.74 in 6.2 mi East 18.4 mph 31.1 mph N/A   Mostly Cloudy
7:00 PM 51.8 °F 50.0 °F 94% 29.77 in 6.2 mi East 17.3 mph - N/A   Light Drizzle
8:00 PM 51.8 °F 50.0 °F 94% 29.77 in 6.2 mi East 16.1 mph - N/A   Mostly Cloudy
9:00 PM 50.0 °F 50.0 °F 100% 29.77 in 1.2 mi East 17.3 mph - N/A   Mostly Cloudy
10:00 PM 50.0 °F 50.0 °F 100% 29.74 in 1.2 mi ENE 13.8 mph - N/A   Mostly Cloudy
11:00 PM 50.0 °F 50.0 °F 100% 29.71 in 1.2 mi ENE 15.0 mph - N/A   Mostly Cloudy